TimeCST,TemperatureF,Dew PointF,Humidity,Sea Level PressureIn,VisibilityMPH,Wind Direction,Wind SpeedMPH,Gust SpeedMPH,PrecipitationIn,Events,Conditions,WindDirDegrees,DateUTC
12:53 AM,21.9,19.0,89,30.35,10.0,NNE,8.1,-,N/A,,Clear,20,2013-01-15 06:53:00
1:53 AM,21.2,19.4,93,30.34,10.0,NNE,9.2,-,N/A,,Clear,20,2013-01-15 07:53:00
3:53 AM,21.9,19.0,89,30.32,10.0,NNE,9.2,-,N/A,,Clear,30,2013-01-15 09:53:00
4:50 AM,21.2,19.4,93,30.30,9.0,NNE,9.2,-,N/A,,Mostly Cloudy,20,2013-01-15 10:50:00
4:53 AM,21.9,19.0,89,30.31,9.0,NNE,9.2,-,N/A,,Mostly Cloudy,30,2013-01-15 10:53:00
5:53 AM,23.0,19.9,88,30.30,8.0,NNE,10.4,-,N/A,,Overcast,30,2013-01-15 11:53:00
6:43 AM,23.0,19.4,86,30.29,8.0,NE,10.4,-,N/A,,Overcast,40,2013-01-15 12:43:00
6:53 AM,23.0,19.9,88,30.32,8.0,NE,10.4,-,N/A,,Overcast,50,2013-01-15 12:53:00
7:53 AM,24.1,21.0,88,30.32,7.0,NE,11.5,-,N/A,,Overcast,50,2013-01-15 13:53:00
8:14 AM,24.8,21.2,86,30.30,7.0,ENE,9.2,-,N/A,,Overcast,60,2013-01-15 14:14:00
8:44 AM,24.8,21.2,86,30.29,7.0,NE,10.4,-,N/A,,Partly Cloudy,50,2013-01-15 14:44:00
8:53 AM,26.1,21.9,84,30.30,7.0,NE,11.5,-,N/A,,Partly Cloudy,40,2013-01-15 14:53:00
9:53 AM,30.0,23.0,75,30.29,9.0,NE,10.4,-,N/A,,Clear,40,2013-01-15 15:53:00
10:53 AM,32.0,21.9,66,30.25,10.0,NE,11.5,-,N/A,,Clear,40,2013-01-15 16:53:00
11:53 AM,30.9,19.9,64,30.24,10.0,NE,9.2,-,N/A,,Mostly Cloudy,40,2013-01-15 17:53:00
12:53 PM,33.1,21.9,64,30.23,10.0,North,11.5,-,N/A,,Overcast,360,2013-01-15 18:53:00
1:53 PM,32.0,23.0,69,30.19,9.0,North,13.8,19.6,N/A,,Overcast,10,2013-01-15 19:53:00
2:53 PM,30.9,23.0,72,30.21,8.0,NNE,12.7,-,N/A,,Overcast,20,2013-01-15 20:53:00
3:53 PM,30.0,23.0,75,30.19,8.0,NNE,9.2,-,N/A,,Overcast,20,2013-01-15 21:53:00
4:40 PM,28.4,24.8,86,30.16,1.8,NNE,9.2,-,0.00,Snow,Light Snow,20,2013-01-15 22:40:00
4:53 PM,28.9,24.1,82,30.18,1.5,NE,9.2,-,0.01,Snow,Light Snow,50,2013-01-15 22:53:00
5:03 PM,28.4,24.8,86,30.16,2.5,NE,6.9,-,0.03,,Overcast,50,2013-01-15 23:03:00
5:12 PM,28.4,24.8,86,30.14,3.0,NE,8.1,-,0.05,,Overcast,50,2013-01-15 23:12:00
5:22 PM,28.4,26.6,93,30.14,3.0,NE,5.8,-,0.08,Rain,Light Freezing Rain,50,2013-01-15 23:22:00
5:32 PM,28.4,26.6,93,30.15,4.0,NNE,8.1,-,0.09,Snow,Light Snow,30,2013-01-15 23:32:00
5:40 PM,28.4,26.6,93,30.14,4.0,NNE,9.2,-,0.10,Snow,Light Snow,30,2013-01-15 23:40:00
5:45 PM,28.4,26.6,93,30.14,4.0,NNE,9.2,-,0.10,,Overcast,20,2013-01-15 23:45:00
5:53 PM,28.9,27.0,92,30.16,4.0,NNE,9.2,-,0.11,,Overcast,20,2013-01-15 23:53:00
6:49 PM,28.4,26.6,93,30.14,4.0,NNE,9.2,-,0.01,Rain,Light Freezing Rain,20,2013-01-16 00:49:00
6:50 PM,28.9,26.1,89,30.16,4.0,NNE,9.2,-,0.01,Rain,Light Freezing Rain,20,2013-01-16 00:50:00
7:21 PM,28.4,24.8,86,30.15,5.0,North,9.2,-,0.01,Rain,Light Freezing Rain,360,2013-01-16 01:21:00
7:31 PM,28.4,24.8,86,30.15,5.0,North,9.2,-,0.01,,Overcast,360,2013-01-16 01:31:00
7:53 PM,28.0,25.0,88,30.16,6.0,North,9.2,-,0.01,,Overcast,360,2013-01-16 01:53:00
8:53 PM,28.9,25.0,85,30.16,7.0,North,8.1,-,N/A,,Overcast,10,2013-01-16 02:53:00
9:26 PM,28.4,26.6,93,30.14,5.0,North,8.1,-,N/A,,Overcast,350,2013-01-16 03:26:00
9:53 PM,28.0,26.1,92,30.14,3.0,North,9.2,-,N/A,,Overcast,350,2013-01-16 03:53:00
10:08 PM,28.4,26.6,93,30.13,3.0,North,6.9,-,N/A,,Overcast,350,2013-01-16 04:08:00
10:40 PM,28.4,26.6,93,30.11,5.0,North,8.1,-,N/A,,Overcast,10,2013-01-16 04:40:00
10:53 PM,28.9,25.0,85,30.11,6.0,North,11.5,-,N/A,,Overcast,10,2013-01-16 04:53:00
11:01 PM,28.4,24.8,86,30.09,6.0,North,9.2,-,N/A,,Overcast,10,2013-01-16 05:01:00
11:13 PM,28.4,24.8,86,30.11,7.0,North,9.2,-,N/A,,Overcast,10,2013-01-16 05:13:00
11:53 PM,28.9,25.0,85,30.11,7.0,North,6.9,-,N/A,,Overcast,10,2013-01-16 05:53:00